Regional Weather Roundup
Issued by NWS Melbourne, FL

Current Version | Previous Version | Text Only | Print | Product List | Glossary On
Versions: 1 2 3 4 5 6 7 8 9 10 11 12 13 14 15 16 17 18 19 20 21 22 23 24 25 26 27 28 29 30 31 32 33 34 35 36 37 38 39 40 41 42 43 44 45 46 47 48 49 50
000
ASUS42 KMLB 110412
RWRMLB
HOURLY WEATHER ROUNDUP AROUND FLORIDA
NATIONAL WEATHER SERVICE OFFICE MELBOURNE FL
1200 AM EDT TUE AUG 11 2020

CITY           SKY/WX    TMP DP  RH WIND       PRES   REMARKS
MELBOURNE      PTCLDY    81  77  88 S3        30.05S
FORT PIERCE    PTCLDY    77  76  96 CALM      30.05F
ORLANDO INTL   CLOUDY    77  73  87 SW5       30.06F
DAYTONA BEACH  CLOUDY    80  77  90 N7        30.07R THUNDER
VERO BEACH     PTCLDY    80  74  81 CALM      30.05F
$$
...ELSEWHERE ACROSS CENTRAL FLORIDA...

CITY           SKY/WX    TMP DP  RH WIND       PRES   REMARKS
PATRICK AFB    PTCLDY    83  73  71 SE7       30.05S
KSC            PTCLDY    79  76  89 CALM      30.05S
CAPE CANAVERAL PTCLDY    81  74  79 S6        30.05S
ORLANDO EXEC   NOT AVBL
LEESBURG       MOCLDY    78  71  79 S5        30.06F
SANFORD        MOCLDY    80  73  79 NW5       30.06S
DELAND         MOCLDY    76  74  93 CALM      30.07F
WINTER HAVEN   CLOUDY    76  73  91 CALM      30.06F
KISSIMMEE      LGT RAIN  76  74  93 SW3       30.07F
OKEECHOBEE     MOCLDY    77  73  88 CALM      30.05F
TAMPA          MOCLDY    84  71  65 E5        30.05F
$$
...NORTHERN FLORIDA...

CITY           SKY/WX    TMP DP  RH WIND       PRES   REMARKS
PALM COAST     CLOUDY    73  70  91 NE6       30.07F
ST AUGUSTINE   RAIN      72  71  97 SE5       30.09F FOG
OCALA          MOCLDY    79  77  94 CALM      30.07R
GAINESVILLE    CLOUDY    76  74  93 E5        30.09R
JACKSONVILLE   LGT RAIN  74  73  97 SE8       30.04F
TALLAHASSEE    MOCLDY    76  76 100 CALM      30.04F
$$
...ALONG THE SOUTHEAST COAST TO THE KEYS...

CITY           SKY/WX    TMP DP  RH WIND       PRES   REMARKS
STUART         PTCLDY    81  73  78 SE3       30.06F
WEST PALM BCH  PTCLDY    85  74  69 E8        30.05S
MIAMI          PTCLDY    84  76  76 E8        30.03S
KEY WEST       CLEAR     86  76  71 E12       30.02R
$$
...MARINE REPORTS...

STATION/POSITION TIME  TEMP    WIND        PRES    WAVE   SWELL
                       AIR SEA DIR/SP/G            HT/PER HT/PER
                 (UTC) (F)     (DEG/KT/KT) (MB)    (FT/S) (FT/S)
ST AUGUSTINE FP  0400   75 86   80/  3/  4 1018.8F
20NM E CAPE CANA 0350   84 84  160/ 10/ 10 1017.3F   1/ 9   2/ 9
TRIDENT PIER     0324   83 89  150/  8/  9 1018.8
SEBASTIAN INLET  0345   83 83  150/  6     1019.0S
4NM E PORT CANAV 0356      87                N/A     1/10
6NM NE FPR INLET 0356      85                N/A     1/11
SETTLEMENT PT GB 0400   83     140/  3/  3 1017.6R
$$




USA.gov is the U.S. government's official web portal to all federal, state and local government web resources and services.